EZY68XU EGKK-LGKR

Flight info

Callsign EZY68XU
Flight time 2h 55m
Altitude 39000
Route ODVIK Y311 DVR UL9 KONAN DCT KOK UL607 FERDI DCT REMBA DCT SPI DCT ULNOK DCT VIBOM DCT NOMBO DCT RIDAR DCT RADIZ DCT DIGOT DCT SIPAL DCT RODON DCT LIMJA N732 PITAS
Aircraft A20N/M-SDE2E3FGHIRWXY/LB1

Departure

Time 2026-05-04 09:27
Airport London Gatwick Airport (EGKK)

Arrival

Time 2026-05-04 12:23
Airport Corfu Ioannis Kapodistrias International Airport (LGKR)
Time Latitude Longitude Altitude Speed Heading
2026-05-04 08:57 51.15599 -0.17565 216 ft 0 kts 330°
2026-05-04 09:17 51.15536 -0.17501 209 ft 0 kts 324°
2026-05-04 09:20 51.15537 -0.17506 209 ft 1 kts 307°
2026-05-04 09:21 51.15535 -0.17558 206 ft 10 kts 264°
2026-05-04 09:21 51.15520 -0.17658 207 ft 9 kts 253°
2026-05-04 09:21 51.15505 -0.17769 206 ft 12 kts 257°
2026-05-04 09:21 51.15486 -0.17912 210 ft 14 kts 257°
2026-05-04 09:22 51.15468 -0.18034 208 ft 15 kts 257°
2026-05-04 09:22 51.15444 -0.18208 213 ft 17 kts 257°
2026-05-04 09:22 51.15375 -0.18274 213 ft 13 kts 174°
2026-05-04 09:22 51.15280 -0.18241 207 ft 15 kts 166°
2026-05-04 09:23 51.15184 -0.18266 208 ft 15 kts 237°
2026-05-04 09:23 51.15174 -0.18437 204 ft 17 kts 256°
2026-05-04 09:23 51.15144 -0.18632 210 ft 19 kts 257°
2026-05-04 09:23 51.15112 -0.18853 215 ft 21 kts 257°
2026-05-04 09:25 51.14841 -0.20832 215 ft 26 kts 258°
2026-05-04 09:25 51.14801 -0.21123 208 ft 27 kts 252°
2026-05-04 09:26 51.14754 -0.21375 208 ft 15 kts 227°
2026-05-04 09:26 51.14668 -0.21375 213 ft 14 kts 143°
2026-05-04 09:26 51.14601 -0.21324 210 ft 9 kts 169°
2026-05-04 09:26 51.14522 -0.21223 210 ft 25 kts 109°
2026-05-04 09:27 51.14587 -0.20702 216 ft 80 kts 77°
2026-05-04 09:27 51.14751 -0.19535 209 ft 134 kts 78°
2026-05-04 09:27 51.14969 -0.17908 476 ft 151 kts 77°
2026-05-04 09:27 51.15182 -0.16359 1256 ft 140 kts 77°
2026-05-04 09:28 51.15407 -0.14776 1711 ft 151 kts 77°
2026-05-04 09:28 51.15645 -0.13108 2227 ft 158 kts 77°
2026-05-04 09:28 51.15865 -0.11389 2833 ft 163 kts 85°
2026-05-04 09:28 51.15770 -0.09579 3622 ft 163 kts 106°
2026-05-04 09:29 51.15278 -0.07968 4392 ft 163 kts 127°
2026-05-04 09:29 51.14438 -0.06675 4940 ft 180 kts 140°
2026-05-04 09:29 51.13362 -0.05274 5007 ft 219 kts 141°
2026-05-04 09:29 51.12088 -0.03623 5013 ft 255 kts 141°
2026-05-04 09:30 51.11065 -0.02307 4995 ft 265 kts 141°
2026-05-04 09:30 51.10015 -0.00620 4994 ft 265 kts 123°
2026-05-04 09:30 51.09391 0.02014 4989 ft 268 kts 96°
2026-05-04 09:30 51.09560 0.04911 4982 ft 268 kts 76°
2026-05-04 09:31 51.10100 0.07748 4985 ft 268 kts 71°
2026-05-04 09:31 51.10681 0.10567 4979 ft 268 kts 72°
2026-05-04 09:31 51.11218 0.13404 4986 ft 268 kts 74°
2026-05-04 09:31 51.11710 0.16289 5181 ft 272 kts 75°
2026-05-04 09:32 51.12175 0.19220 5933 ft 274 kts 77°
2026-05-04 09:32 51.12627 0.22162 6944 ft 277 kts 77°
2026-05-04 09:34 51.15887 0.43786 12840 ft 308 kts 77°
2026-05-04 09:34 51.16379 0.47128 13658 ft 312 kts 80°
2026-05-04 09:34 51.16620 0.50575 14385 ft 314 kts 90°
2026-05-04 09:34 51.16604 0.54108 14878 ft 328 kts 92°
2026-05-04 09:35 51.16590 0.57808 15081 ft 349 kts 91°
2026-05-04 09:35 51.16583 0.61789 15354 ft 367 kts 91°
2026-05-04 09:35 51.16579 0.65883 16001 ft 372 kts 91°
2026-05-04 09:35 51.16575 0.70023 16710 ft 375 kts 91°
2026-05-04 09:37 51.16484 0.99440 20864 ft 404 kts 92°
2026-05-04 09:37 51.16463 1.03937 21444 ft 407 kts 92°
2026-05-04 09:38 51.16441 1.08461 22005 ft 410 kts 92°
2026-05-04 09:38 51.16417 1.13027 22548 ft 414 kts 92°
2026-05-04 09:38 51.16390 1.17635 23113 ft 418 kts 92°
2026-05-04 09:38 51.16362 1.22290 23639 ft 422 kts 93°
2026-05-04 09:39 51.16331 1.26981 24105 ft 425 kts 93°
2026-05-04 09:39 51.16300 1.31670 24577 ft 427 kts 93°
2026-05-04 09:39 51.16247 1.36377 25018 ft 430 kts 96°
2026-05-04 09:39 51.16019 1.41104 25460 ft 432 kts 98°
2026-05-04 09:40 51.15791 1.45861 25826 ft 436 kts 98°
2026-05-04 09:40 51.15560 1.50733 26269 ft 439 kts 98°
2026-05-04 09:40 51.15328 1.55585 26725 ft 440 kts 98°
2026-05-04 09:40 51.15092 1.60463 27152 ft 443 kts 98°
2026-05-04 09:41 51.14852 1.65365 27566 ft 445 kts 98°
2026-05-04 09:42 51.13071 2.00290 30068 ft 461 kts 99°
2026-05-04 09:43 51.12803 2.05388 30381 ft 463 kts 100°
2026-05-04 09:43 51.12531 2.10513 30651 ft 466 kts 100°
2026-05-04 09:43 51.12254 2.15666 30943 ft 468 kts 100°
2026-05-04 09:43 51.11980 2.20753 31257 ft 469 kts 100°
2026-05-04 09:44 51.11698 2.25926 31630 ft 469 kts 100°
2026-05-04 09:44 51.11415 2.31092 32012 ft 468 kts 100°
2026-05-04 09:44 51.11130 2.36244 32387 ft 468 kts 100°
2026-05-04 09:46 51.08272 2.71922 34553 ft 457 kts 112°
2026-05-04 09:46 51.07382 2.76779 34798 ft 458 kts 111°
2026-05-04 09:46 51.06498 2.81638 35069 ft 458 kts 111°
2026-05-04 09:47 51.05615 2.86499 35250 ft 459 kts 111°
2026-05-04 09:47 51.04725 2.91381 35415 ft 460 kts 111°
2026-05-04 09:49 50.98470 3.25320 37018 ft 457 kts 110°
2026-05-04 09:49 50.97565 3.30180 37196 ft 457 kts 110°
2026-05-04 09:49 50.96662 3.35015 37369 ft 457 kts 110°
2026-05-04 09:51 50.91232 3.63848 38474 ft 454 kts 110°
2026-05-04 09:51 50.90320 3.68645 38634 ft 454 kts 110°
2026-05-04 09:51 50.89409 3.73429 38763 ft 454 kts 110°
2026-05-04 09:51 50.88497 3.78213 38865 ft 454 kts 110°
2026-05-04 09:52 50.87583 3.82996 38965 ft 454 kts 110°
2026-05-04 09:52 50.85747 3.92555 38988 ft 453 kts 110°
2026-05-04 09:53 50.83918 4.02029 38995 ft 453 kts 110°
2026-05-04 09:53 50.82070 4.11559 39002 ft 453 kts 110°
2026-05-04 09:54 50.80214 4.21077 39008 ft 453 kts 111°
2026-05-04 09:54 50.78357 4.30561 38998 ft 451 kts 111°
2026-05-04 09:55 50.76492 4.40031 39000 ft 452 kts 111°
2026-05-04 09:55 50.74632 4.49430 39000 ft 452 kts 111°
2026-05-04 09:56 50.72755 4.58873 38997 ft 451 kts 111°
2026-05-04 09:56 50.71130 4.67015 38985 ft 451 kts 111°
2026-05-04 09:57 50.69247 4.76412 38963 ft 449 kts 111°
2026-05-04 09:57 50.67382 4.85664 38968 ft 449 kts 111°
2026-05-04 09:58 50.65456 4.95174 38968 ft 449 kts 111°
2026-05-04 09:58 50.63550 5.04473 38964 ft 449 kts 112°
2026-05-04 10:00 50.55774 5.41927 38998 ft 451 kts 112°
2026-05-04 10:04 50.41389 6.07107 38994 ft 455 kts 114°
2026-05-04 10:04 50.39275 6.16368 38986 ft 454 kts 114°
2026-05-04 10:05 50.37142 6.25669 38982 ft 453 kts 114°
2026-05-04 10:05 50.35006 6.34945 38973 ft 453 kts 114°
2026-05-04 10:06 50.32863 6.44211 38974 ft 453 kts 114°
2026-05-04 10:06 50.30714 6.53460 38958 ft 452 kts 114°
2026-05-04 10:08 50.23152 6.85698 38998 ft 453 kts 114°
2026-05-04 10:08 50.21000 6.94788 38982 ft 454 kts 114°
2026-05-04 10:09 50.18800 7.04031 39000 ft 455 kts 114°
2026-05-04 10:09 50.16593 7.13278 39006 ft 455 kts 114°
2026-05-04 10:10 50.14371 7.22545 39014 ft 457 kts 114°
2026-05-04 10:10 50.12218 7.31479 39018 ft 458 kts 115°
2026-05-04 10:11 50.09986 7.40707 39022 ft 459 kts 115°
2026-05-04 10:11 50.07731 7.49994 39015 ft 459 kts 115°
2026-05-04 10:12 50.05472 7.59261 39004 ft 457 kts 115°
2026-05-04 10:12 50.03207 7.68509 39004 ft 458 kts 115°
2026-05-04 10:13 50.00952 7.77677 38996 ft 458 kts 115°
2026-05-04 10:13 49.98666 7.86932 39008 ft 459 kts 115°
2026-05-04 10:14 49.96373 7.96183 39019 ft 459 kts 115°
2026-05-04 10:16 49.87141 8.33022 39003 ft 462 kts 115°
2026-05-04 10:16 49.84351 8.41889 39010 ft 455 kts 125°
2026-05-04 10:17 49.80785 8.49918 39011 ft 451 kts 134°
2026-05-04 10:19 49.65140 8.80129 39020 ft 451 kts 133°
2026-05-04 10:19 49.61207 8.87678 39024 ft 451 kts 133°
2026-05-04 10:20 49.57301 8.95155 39023 ft 451 kts 133°
2026-05-04 10:20 49.53365 9.02669 39031 ft 451 kts 133°
2026-05-04 10:21 49.49535 9.09958 39027 ft 451 kts 133°
2026-05-04 10:21 49.45684 9.17647 39028 ft 453 kts 127°
2026-05-04 10:22 49.40625 9.29603 39025 ft 453 kts 127°
2026-05-04 10:23 49.37174 9.37697 39023 ft 453 kts 127°
2026-05-04 10:25 49.23490 9.69506 39036 ft 450 kts 127°
2026-05-04 10:25 49.20028 9.77493 39014 ft 450 kts 127°
2026-05-04 10:26 49.16563 9.85463 39021 ft 450 kts 127°
2026-05-04 10:26 49.13172 9.93242 39023 ft 450 kts 127°
2026-05-04 10:27 49.09698 10.01187 39016 ft 450 kts 127°
2026-05-04 10:27 49.06096 10.08871 39025 ft 446 kts 133°
2026-05-04 10:28 49.01846 10.15706 39031 ft 443 kts 139°
2026-05-04 10:28 48.97468 10.22320 39022 ft 443 kts 139°
2026-05-04 10:29 48.93095 10.28945 39039 ft 444 kts 139°
2026-05-04 10:29 48.88751 10.35512 39040 ft 444 kts 139°
2026-05-04 10:30 48.84369 10.42120 39047 ft 444 kts 139°
2026-05-04 10:30 48.79981 10.48718 39045 ft 444 kts 139°
2026-05-04 10:31 48.75589 10.55305 39042 ft 444 kts 139°
2026-05-04 10:32 48.60795 10.77370 39047 ft 445 kts 139°
2026-05-04 10:33 48.56641 10.84303 39036 ft 448 kts 132°
2026-05-04 10:33 48.52891 10.91320 39061 ft 435 kts 132°
2026-05-04 10:34 48.49219 10.98145 39015 ft 440 kts 132°
2026-05-04 10:34 48.45475 11.05066 39022 ft 446 kts 132°
2026-05-04 10:35 48.41543 11.12317 39020 ft 447 kts 132°
2026-05-04 10:35 48.37610 11.19553 39024 ft 447 kts 132°
2026-05-04 10:36 48.33669 11.26782 39024 ft 448 kts 132°
2026-05-04 10:36 48.29900 11.33676 39023 ft 450 kts 132°
2026-05-04 10:37 48.25924 11.40933 39027 ft 450 kts 133°
2026-05-04 10:37 48.22213 11.47685 39021 ft 452 kts 133°
2026-05-04 10:39 48.08639 11.72244 39023 ft 448 kts 132°
2026-05-04 10:40 48.04649 11.79422 39023 ft 448 kts 133°
2026-05-04 10:40 48.00683 11.86536 39014 ft 449 kts 133°
2026-05-04 10:41 47.96771 11.93535 39015 ft 450 kts 133°
2026-05-04 10:41 47.92763 12.00685 39005 ft 447 kts 132°
2026-05-04 10:42 47.88768 12.07796 39007 ft 448 kts 132°
2026-05-04 10:42 47.84764 12.14903 39008 ft 448 kts 132°
2026-05-04 10:43 47.80783 12.21950 39005 ft 448 kts 132°
2026-05-04 10:45 47.64712 12.50123 39005 ft 447 kts 136°
2026-05-04 10:45 47.60167 12.56354 39008 ft 444 kts 144°
2026-05-04 10:46 47.55135 12.61642 39008 ft 444 kts 148°
2026-05-04 10:46 47.50072 12.66850 39006 ft 441 kts 147°
2026-05-04 10:47 47.45040 12.72051 39006 ft 442 kts 147°
2026-05-04 10:47 47.40033 12.77213 39019 ft 442 kts 147°
2026-05-04 10:49 47.19884 12.97854 39039 ft 442 kts 147°
2026-05-04 10:50 47.14819 13.03006 39053 ft 443 kts 147°
2026-05-04 10:52 46.94537 13.23526 39080 ft 444 kts 147°
2026-05-04 10:52 46.89476 13.28617 39080 ft 444 kts 147°
2026-05-04 10:54 46.69172 13.48922 39088 ft 444 kts 147°
2026-05-04 10:56 46.48721 13.69183 39096 ft 447 kts 148°
2026-05-04 10:57 46.43604 13.74224 39098 ft 444 kts 149°
2026-05-04 10:57 46.38478 13.79261 39100 ft 446 kts 148°
2026-05-04 10:58 46.33313 13.84326 39105 ft 449 kts 148°
2026-05-04 10:58 46.28156 13.89370 39116 ft 447 kts 148°
2026-05-04 10:59 46.23018 13.94386 39106 ft 449 kts 148°
2026-05-04 10:59 46.17842 13.99431 39107 ft 450 kts 148°
2026-05-04 11:00 46.12662 14.04460 39105 ft 450 kts 148°
2026-05-04 11:02 45.91847 14.24560 39095 ft 450 kts 148°
2026-05-04 11:05 45.52590 14.61975 39124 ft 456 kts 148°
2026-05-04 11:06 45.47322 14.66945 39134 ft 457 kts 148°
2026-05-04 11:06 45.42015 14.71944 39124 ft 455 kts 148°
2026-05-04 11:10 45.05714 15.05834 39118 ft 459 kts 148°
2026-05-04 11:12 44.84407 15.25483 39119 ft 458 kts 148°
2026-05-04 11:12 44.79069 15.30377 39127 ft 458 kts 148°
2026-05-04 11:13 44.73769 15.35224 39099 ft 458 kts 148°
2026-05-04 11:13 44.68423 15.40106 39105 ft 458 kts 148°
2026-05-04 11:14 44.63077 15.44976 39105 ft 459 kts 148°
2026-05-04 11:16 44.41590 15.64446 39130 ft 464 kts 148°
2026-05-04 11:16 44.36368 15.69719 39137 ft 465 kts 141°
2026-05-04 11:17 44.31622 15.75223 39126 ft 465 kts 141°
2026-05-04 11:19 44.11747 15.98015 39106 ft 462 kts 142°
2026-05-04 11:19 44.06798 16.03647 39135 ft 465 kts 142°
2026-05-04 11:20 44.01774 16.09351 39128 ft 467 kts 142°
2026-05-04 11:20 43.96723 16.15072 39130 ft 469 kts 142°
2026-05-04 11:22 43.76520 16.37831 39121 ft 470 kts 141°
2026-05-04 11:23 43.71434 16.43529 39124 ft 470 kts 141°
2026-05-04 11:25 43.53633 16.63369 39146 ft 472 kts 142°
2026-05-04 11:25 43.48517 16.69042 39140 ft 473 kts 142°
2026-05-04 11:27 43.25463 16.94449 39146 ft 473 kts 141°
2026-05-04 11:28 43.20321 17.00081 39147 ft 473 kts 141°
2026-05-04 11:28 43.15212 17.05666 39153 ft 473 kts 141°
2026-05-04 11:29 43.10175 17.11463 39143 ft 473 kts 137°
2026-05-04 11:29 43.05375 17.17622 39145 ft 473 kts 136°
2026-05-04 11:33 42.71306 17.59941 39159 ft 475 kts 137°
2026-05-04 11:33 42.66410 17.65954 39161 ft 475 kts 137°
2026-05-04 11:34 42.61507 17.71962 39154 ft 475 kts 137°
2026-05-04 11:34 42.56597 17.77964 39159 ft 475 kts 137°
2026-05-04 11:35 42.51712 17.83924 39159 ft 476 kts 137°
2026-05-04 11:35 42.46791 17.89916 39164 ft 476 kts 137°
2026-05-04 11:36 42.41863 17.95901 39165 ft 476 kts 137°
2026-05-04 11:36 42.36933 18.01877 39158 ft 476 kts 137°
2026-05-04 11:37 42.32052 18.07779 39158 ft 476 kts 137°
2026-05-04 11:37 42.27230 18.13597 39160 ft 477 kts 137°
2026-05-04 11:38 42.22283 18.19555 39157 ft 477 kts 137°
2026-05-04 11:38 42.17332 18.25504 39156 ft 477 kts 137°
2026-05-04 11:39 42.12377 18.31444 39148 ft 477 kts 137°
2026-05-04 11:41 41.95016 18.52161 39154 ft 478 kts 137°
2026-05-04 11:41 41.90032 18.58073 39146 ft 478 kts 137°
2026-05-04 11:42 41.85073 18.63947 39151 ft 479 kts 137°
2026-05-04 11:42 41.80233 18.69670 39150 ft 479 kts 137°
2026-05-04 11:43 41.75232 18.75569 39147 ft 479 kts 137°
2026-05-04 11:43 41.70221 18.81465 39149 ft 480 kts 137°
2026-05-04 11:44 41.65239 18.87317 39150 ft 480 kts 137°
2026-05-04 11:44 41.60215 18.93205 39144 ft 480 kts 137°
2026-05-04 11:45 41.55185 18.99089 39142 ft 481 kts 137°
2026-05-04 11:45 41.50149 19.04948 39144 ft 481 kts 140°
2026-05-04 11:46 41.44634 19.09999 39141 ft 482 kts 151°
2026-05-04 11:46 41.38554 19.13591 39133 ft 482 kts 161°
2026-05-04 11:47 41.32245 19.16638 39132 ft 483 kts 160°
2026-05-04 11:47 41.26232 19.19569 39138 ft 483 kts 160°
2026-05-04 11:48 41.19917 19.22644 39145 ft 484 kts 160°
2026-05-04 11:48 41.13595 19.25713 39148 ft 484 kts 160°
2026-05-04 11:49 41.07264 19.28781 39147 ft 485 kts 160°
2026-05-04 11:49 41.00969 19.31825 39148 ft 485 kts 160°
2026-05-04 11:50 40.94626 19.34885 39141 ft 485 kts 161°
2026-05-04 11:50 40.88284 19.37939 39032 ft 483 kts 161°
2026-05-04 11:50 40.85359 19.39346 38335 ft 484 kts 161°
2026-05-04 11:51 40.82175 19.40875 37094 ft 490 kts 161°
2026-05-04 11:51 40.78940 19.42428 35731 ft 499 kts 161°
2026-05-04 11:51 40.75678 19.43992 34955 ft 494 kts 161°
2026-05-04 11:51 40.72533 19.45500 34481 ft 483 kts 162°
2026-05-04 11:52 40.69396 19.47004 33978 ft 479 kts 161°
2026-05-04 11:52 40.66326 19.48471 33081 ft 482 kts 161°
2026-05-04 11:52 40.63155 19.49984 31932 ft 487 kts 161°
2026-05-04 11:52 40.59942 19.51515 30675 ft 495 kts 161°
2026-05-04 11:53 40.56681 19.53068 29325 ft 501 kts 161°
2026-05-04 11:53 40.53425 19.54616 28456 ft 494 kts 160°
2026-05-04 11:53 40.50220 19.56137 27658 ft 485 kts 160°
2026-05-04 11:53 40.47064 19.57633 26830 ft 479 kts 160°
2026-05-04 11:55 40.26455 19.67357 22405 ft 410 kts 159°
2026-05-04 11:55 40.23832 19.68592 22174 ft 392 kts 159°
2026-05-04 11:56 40.21290 19.69790 21671 ft 386 kts 159°
2026-05-04 11:56 40.18784 19.70970 21125 ft 381 kts 160°
2026-05-04 11:56 40.16299 19.72139 20516 ft 377 kts 159°
2026-05-04 11:56 40.13878 19.73276 19929 ft 373 kts 160°
2026-05-04 11:57 40.11513 19.74386 19190 ft 375 kts 160°
2026-05-04 11:57 40.09083 19.75523 18390 ft 378 kts 160°
2026-05-04 11:57 40.06667 19.76654 18127 ft 364 kts 160°
2026-05-04 11:57 40.04297 19.77763 17712 ft 361 kts 160°
2026-05-04 11:58 40.01947 19.78863 17332 ft 357 kts 159°
2026-05-04 11:58 39.99634 19.79945 17251 ft 354 kts 159°
2026-05-04 11:58 39.97284 19.81044 17154 ft 362 kts 160°
2026-05-04 11:58 39.94923 19.82146 17108 ft 358 kts 160°
2026-05-04 11:59 39.92576 19.83239 17110 ft 358 kts 160°
2026-05-04 11:59 39.90194 19.84016 17112 ft 359 kts 175°
2026-05-04 11:59 39.87683 19.83956 17115 ft 356 kts 192°
2026-05-04 11:59 39.85241 19.83401 17116 ft 356 kts 192°
2026-05-04 12:00 39.82851 19.82774 17114 ft 354 kts 198°
2026-05-04 12:00 39.80522 19.81780 17019 ft 351 kts 204°
2026-05-04 12:00 39.78260 19.80663 16731 ft 348 kts 205°
2026-05-04 12:00 39.76008 19.79538 16144 ft 345 kts 204°
2026-05-04 12:01 39.74020 19.78525 15659 ft 342 kts 205°
2026-05-04 12:01 39.71814 19.77390 15116 ft 339 kts 205°
2026-05-04 12:02 39.59272 19.70705 11751 ft 321 kts 205°
2026-05-04 12:03 39.57190 19.69693 10847 ft 330 kts 193°
2026-05-04 12:03 39.54865 19.69561 9796 ft 341 kts 170°
2026-05-04 12:03 39.52527 19.70275 8660 ft 350 kts 165°
2026-05-04 12:03 39.50139 19.71096 7506 ft 359 kts 165°
2026-05-04 12:04 39.47742 19.71929 6811 ft 352 kts 165°
2026-05-04 12:04 39.45428 19.72738 6410 ft 337 kts 165°
2026-05-04 12:04 39.43230 19.73511 6170 ft 317 kts 164°
2026-05-04 12:04 39.41315 19.74671 6019 ft 294 kts 140°
2026-05-04 12:05 39.40055 19.76631 5935 ft 282 kts 113°
2026-05-04 12:05 39.39581 19.79036 5577 ft 275 kts 87°
2026-05-04 12:05 39.39978 19.81398 5079 ft 267 kts 59°
2026-05-04 12:05 39.41131 19.83166 4617 ft 262 kts 32°
2026-05-04 12:06 39.42800 19.84000 4225 ft 257 kts
2026-05-04 12:06 39.44542 19.83680 3825 ft 255 kts 335°
2026-05-04 12:06 39.45902 19.82292 3591 ft 252 kts 307°
2026-05-04 12:06 39.46914 19.80399 3510 ft 256 kts 304°
2026-05-04 12:07 39.47909 19.78491 3494 ft 256 kts 304°
2026-05-04 12:07 39.48900 19.76584 3496 ft 258 kts 304°
2026-05-04 12:07 39.50026 19.74808 3495 ft 255 kts 323°
2026-05-04 12:07 39.51576 19.73696 3493 ft 256 kts 334°
2026-05-04 12:08 39.53189 19.72706 3496 ft 256 kts 335°
2026-05-04 12:08 39.54832 19.71947 3496 ft 252 kts 344°
2026-05-04 12:08 39.56464 19.71325 3490 ft 237 kts 343°
2026-05-04 12:08 39.57990 19.70724 3493 ft 221 kts 343°
2026-05-04 12:09 39.59401 19.70181 3488 ft 205 kts 343°
2026-05-04 12:09 39.60717 19.69689 3488 ft 190 kts 343°
2026-05-04 12:09 39.61987 19.69221 3509 ft 184 kts 344°
2026-05-04 12:09 39.63156 19.68796 3487 ft 165 kts 344°
2026-05-04 12:10 39.64201 19.68420 3473 ft 147 kts 344°
2026-05-04 12:10 39.65192 19.68060 3499 ft 153 kts 344°
2026-05-04 12:10 39.66192 19.67696 3481 ft 147 kts 344°
2026-05-04 12:10 39.67164 19.67345 3495 ft 148 kts 344°
2026-05-04 12:11 39.67981 19.67048 3475 ft 147 kts 345°
2026-05-04 12:11 39.68926 19.66706 3476 ft 147 kts 345°
2026-05-04 12:11 39.69933 19.66440 3472 ft 149 kts
2026-05-04 12:11 39.70904 19.66901 3486 ft 150 kts 28°
2026-05-04 12:12 39.71798 19.67563 3485 ft 149 kts 28°
2026-05-04 12:12 39.72704 19.68230 3471 ft 148 kts 27°
2026-05-04 12:12 39.73610 19.68884 3502 ft 151 kts 27°
2026-05-04 12:12 39.74532 19.69537 3507 ft 151 kts 27°
2026-05-04 12:13 39.75449 19.70196 3490 ft 148 kts 26°
2026-05-04 12:14 39.82259 19.75042 3491 ft 164 kts 27°
2026-05-04 12:15 39.83253 19.75756 3488 ft 162 kts 27°
2026-05-04 12:15 39.84251 19.76471 3489 ft 165 kts 27°
2026-05-04 12:15 39.85196 19.77196 3483 ft 165 kts 39°
2026-05-04 12:15 39.85689 19.78212 3492 ft 168 kts 75°
2026-05-04 12:16 39.85540 19.79710 3494 ft 173 kts 115°
2026-05-04 12:16 39.84956 19.81095 3486 ft 174 kts 121°
2026-05-04 12:16 39.84353 19.82422 3489 ft 174 kts 121°
2026-05-04 12:16 39.83743 19.83778 3390 ft 174 kts 121°
2026-05-04 12:17 39.83142 19.85142 3271 ft 173 kts 120°
2026-05-04 12:17 39.82551 19.86511 3142 ft 175 kts 120°
2026-05-04 12:17 39.81953 19.87898 3019 ft 177 kts 119°
2026-05-04 12:17 39.81368 19.89270 2886 ft 172 kts 120°
2026-05-04 12:18 39.80727 19.90514 2843 ft 160 kts 133°
2026-05-04 12:18 39.79836 19.91316 2837 ft 156 kts 163°
2026-05-04 12:18 39.78773 19.91478 2851 ft 155 kts 184°
2026-05-04 12:18 39.77721 19.91251 2781 ft 154 kts 198°
2026-05-04 12:19 39.76713 19.90807 2736 ft 153 kts 202°
2026-05-04 12:19 39.75695 19.90404 2624 ft 154 kts 191°
2026-05-04 12:19 39.74635 19.90208 2502 ft 152 kts 192°
2026-05-04 12:19 39.73615 19.89986 2432 ft 155 kts 194°
2026-05-04 12:20 39.72572 19.89723 2409 ft 152 kts 195°
2026-05-04 12:20 39.71536 19.89438 2307 ft 150 kts 194°
2026-05-04 12:20 39.70514 19.89148 2196 ft 150 kts 194°
2026-05-04 12:20 39.69482 19.88925 1933 ft 154 kts 186°
2026-05-04 12:21 39.68395 19.89124 1518 ft 157 kts 169°
2026-05-04 12:21 39.67370 19.89416 1383 ft 151 kts 171°
2026-05-04 12:21 39.66347 19.89690 1197 ft 151 kts 171°
2026-05-04 12:21 39.65315 19.89927 947 ft 151 kts 174°
2026-05-04 12:22 39.64323 19.90157 702 ft 143 kts 168°
2026-05-04 12:22 39.63333 19.90408 536 ft 150 kts 167°
2026-05-04 12:22 39.62331 19.90661 311 ft 143 kts 167°
2026-05-04 12:22 39.61355 19.90910 107 ft 143 kts 166°
2026-05-04 12:23 39.60403 19.91156 8 ft 120 kts 168°
2026-05-04 12:23 39.59974 19.91265 9 ft 19 kts 175°
2026-05-04 12:23 39.59958 19.91266 11 ft 0 kts 179°
2026-05-04 12:23 39.59946 19.91281 10 ft 2 kts 63°
2026-05-04 12:24 39.60013 19.91262 9 ft 23 kts 349°
2026-05-04 12:24 39.60224 19.91206 10 ft 34 kts 348°
2026-05-04 12:24 39.60447 19.91146 8 ft 30 kts 348°
2026-05-04 12:24 39.60513 19.91134 8 ft 3 kts 17°
2026-05-04 12:25 39.60557 19.91176 8 ft 9 kts 39°
2026-05-04 12:25 39.60580 19.91193 8 ft 0 kts 23°
2026-05-04 12:26 39.60582 19.91194 8 ft 3 kts 23°
2026-05-04 12:26 39.60628 19.91214 8 ft 10 kts 15°
2026-05-04 12:26 39.60700 19.91217 8 ft 10 kts 349°
2026-05-04 12:27 39.60755 19.91220 8 ft 10 kts 26°
2026-05-04 12:27 39.60774 19.91279 9 ft 6 kts 75°
2026-05-04 12:27 39.60778 19.91302 9 ft 0 kts 78°